TimeEDT,TemperatureF,Dew PointF,Humidity,Sea Level PressureIn,VisibilityMPH,Wind Direction,Wind SpeedMPH,Gust SpeedMPH,PrecipitationIn,Events,Conditions,WindDirDegrees,DateUTC
12:53 AM,32.0,12.9,45,29.90,10.0,West,10.4,-,N/A,,Mostly Cloudy,270,2013-03-21 04:53:00
1:53 AM,30.0,9.0,41,29.88,10.0,West,9.2,-,N/A,,Mostly Cloudy,260,2013-03-21 05:53:00
2:53 AM,28.9,10.9,47,29.88,10.0,West,12.7,-,N/A,,Partly Cloudy,270,2013-03-21 06:53:00
3:53 AM,27.0,10.9,51,29.86,10.0,West,11.5,-,N/A,,Clear,270,2013-03-21 07:53:00
4:53 AM,26.1,10.0,51,29.86,10.0,West,9.2,-,N/A,,Clear,270,2013-03-21 08:53:00
5:53 AM,25.0,10.0,53,29.87,10.0,West,10.4,-,N/A,,Scattered Clouds,270,2013-03-21 09:53:00
6:53 AM,24.1,10.0,55,29.88,10.0,NW,12.7,19.6,N/A,,Mostly Cloudy,310,2013-03-21 10:53:00
7:53 AM,23.0,8.1,53,29.89,10.0,WNW,11.5,-,N/A,,Scattered Clouds,300,2013-03-21 11:53:00
8:53 AM,25.0,7.0,46,29.90,10.0,WNW,11.5,-,N/A,,Scattered Clouds,300,2013-03-21 12:53:00
9:53 AM,26.1,8.1,47,29.93,10.0,WNW,12.7,-,N/A,,Scattered Clouds,290,2013-03-21 13:53:00
10:53 AM,26.1,8.1,47,29.92,10.0,WNW,10.4,-,N/A,,Scattered Clouds,290,2013-03-21 14:53:00
11:53 AM,27.0,7.0,43,29.94,10.0,WNW,9.2,20.7,N/A,,Mostly Cloudy,300,2013-03-21 15:53:00
12:53 PM,30.0,7.0,38,29.93,10.0,WNW,12.7,21.9,N/A,,Mostly Cloudy,300,2013-03-21 16:53:00
1:53 PM,30.9,9.0,40,29.91,10.0,WNW,9.2,-,N/A,,Mostly Cloudy,300,2013-03-21 17:53:00
2:53 PM,30.9,8.1,38,29.91,10.0,WNW,15.0,20.7,N/A,,Mostly Cloudy,300,2013-03-21 18:53:00
3:53 PM,35.1,9.0,34,29.91,10.0,West,20.7,25.3,N/A,,Mostly Cloudy,270,2013-03-21 19:53:00
4:53 PM,37.0,10.0,33,29.91,10.0,WNW,10.4,20.7,N/A,,Scattered Clouds,290,2013-03-21 20:53:00
5:53 PM,36.0,8.1,31,29.91,10.0,West,17.3,23.0,N/A,,Mostly Cloudy,260,2013-03-21 21:53:00
6:05 PM,34.0,7.0,32,29.91,10.0,WNW,10.4,-,N/A,,Mostly Cloudy,290,2013-03-21 22:05:00
6:53 PM,34.0,8.1,34,29.92,10.0,West,13.8,-,N/A,,Scattered Clouds,270,2013-03-21 22:53:00
7:53 PM,30.9,8.1,38,29.94,10.0,NW,8.1,-,N/A,,Partly Cloudy,310,2013-03-21 23:53:00
8:53 PM,30.0,8.1,40,29.96,10.0,NW,6.9,-,N/A,,Clear,320,2013-03-22 00:53:00
9:53 PM,27.0,10.0,49,29.98,10.0,NNE,8.1,-,N/A,,Clear,20,2013-03-22 01:53:00
10:53 PM,25.0,10.9,55,29.99,10.0,North,6.9,-,N/A,,Clear,10,2013-03-22 02:53:00
11:53 PM,21.9,10.9,63,30.01,10.0,NNE,4.6,-,N/A,,Clear,20,2013-03-22 03:53:00